Year,Month,Day,Hour,Minute,Value (Times are PST for temperature in C)
2015,02,22,00,00,2.80
2015,02,22,00,01,2.80
2015,02,22,00,02,2.80
2015,02,22,00,03,2.80
2015,02,22,00,04,2.80
2015,02,22,00,05,2.80
2015,02,22,00,06,2.70
2015,02,22,00,07,2.70
2015,02,22,00,08,2.70
2015,02,22,00,09,2.60
2015,02,22,00,10,2.60
2015,02,22,00,11,2.50
2015,02,22,00,12,2.40
2015,02,22,00,13,2.30
2015,02,22,00,14,2.20
2015,02,22,00,15,2.10
2015,02,22,00,16,2.10
2015,02,22,00,17,2.10
2015,02,22,00,18,2.10
2015,02,22,00,19,2.10
2015,02,22,00,20,2.20
2015,02,22,00,21,2.20
2015,02,22,00,22,2.10
2015,02,22,00,23,2.10
2015,02,22,00,24,2.10
2015,02,22,00,25,2.00
2015,02,22,00,26,2.00
2015,02,22,00,27,1.90
2015,02,22,00,28,1.90
2015,02,22,00,29,1.90
2015,02,22,00,30,1.90
2015,02,22,00,31,1.90
2015,02,22,00,32,2.10
2015,02,22,00,33,2.20
2015,02,22,00,34,2.30
2015,02,22,00,35,2.40
2015,02,22,00,36,2.50
2015,02,22,00,37,2.50
2015,02,22,00,38,2.50
2015,02,22,00,39,2.50
2015,02,22,00,40,2.50
2015,02,22,00,41,2.50
2015,02,22,00,42,2.40
2015,02,22,00,43,2.40
2015,02,22,00,44,2.30
2015,02,22,00,45,2.30
2015,02,22,00,46,2.20
2015,02,22,00,47,2.20
2015,02,22,00,48,2.20
2015,02,22,00,49,2.20
2015,02,22,00,50,2.10
2015,02,22,00,51,2.10
2015,02,22,00,52,2.10
2015,02,22,00,53,2.10
2015,02,22,00,54,2.10
2015,02,22,00,55,2.10
2015,02,22,00,56,2.10
2015,02,22,00,57,2.10
2015,02,22,00,58,2.10
2015,02,22,00,59,2.10
2015,02,22,01,00,2.20
2015,02,22,01,01,2.20
2015,02,22,01,02,2.20
2015,02,22,01,03,2.20
2015,02,22,01,04,2.20
2015,02,22,01,05,2.20
2015,02,22,01,06,2.20
2015,02,22,01,07,2.20
2015,02,22,01,08,2.30
2015,02,22,01,09,2.30
2015,02,22,01,10,2.30
2015,02,22,01,11,2.40
2015,02,22,01,12,2.50
2015,02,22,01,13,2.50
2015,02,22,01,14,2.60
2015,02,22,01,15,2.60
2015,02,22,01,16,2.60
2015,02,22,01,17,2.60
2015,02,22,01,18,2.50
2015,02,22,01,19,2.50
2015,02,22,01,20,2.40
2015,02,22,01,21,2.30
2015,02,22,01,22,2.20
2015,02,22,01,23,2.10
2015,02,22,01,24,2.00
2015,02,22,01,25,1.90
2015,02,22,01,26,1.90
2015,02,22,01,27,1.90
2015,02,22,01,28,1.90
2015,02,22,01,29,1.90
2015,02,22,01,30,2.00
2015,02,22,01,31,2.00
2015,02,22,01,32,2.10
2015,02,22,01,33,2.10
2015,02,22,01,34,2.10
2015,02,22,01,35,2.00
2015,02,22,01,36,2.00
2015,02,22,01,37,1.90
2015,02,22,01,38,1.90
2015,02,22,01,39,1.90
2015,02,22,01,40,1.90
2015,02,22,01,41,1.80
2015,02,22,01,42,1.80
2015,02,22,01,43,1.80
2015,02,22,01,44,1.80
2015,02,22,01,45,1.80
2015,02,22,01,46,1.70
2015,02,22,01,47,1.70
2015,02,22,01,48,1.70
2015,02,22,01,49,1.70
2015,02,22,01,50,1.60
2015,02,22,01,51,1.60
2015,02,22,01,52,1.60
2015,02,22,01,53,1.50
2015,02,22,01,54,1.50
2015,02,22,01,55,1.50
2015,02,22,01,56,1.60
2015,02,22,01,57,1.60
2015,02,22,01,58,1.60
2015,02,22,01,59,1.50
2015,02,22,02,00,1.40
2015,02,22,02,01,1.40
2015,02,22,02,02,1.30
2015,02,22,02,03,1.40
2015,02,22,02,04,1.40
2015,02,22,02,05,1.50
2015,02,22,02,06,1.50
2015,02,22,02,07,1.50
2015,02,22,02,08,1.50
2015,02,22,02,09,1.50
2015,02,22,02,10,1.50
2015,02,22,02,11,1.60
2015,02,22,02,12,1.70
2015,02,22,02,13,1.70
2015,02,22,02,14,1.80
2015,02,22,02,15,1.90
2015,02,22,02,16,1.90
2015,02,22,02,17,2.00
2015,02,22,02,18,2.00
2015,02,22,02,19,1.90
2015,02,22,02,20,1.90
2015,02,22,02,21,1.90
2015,02,22,02,22,1.90
2015,02,22,02,23,1.90
2015,02,22,02,24,1.90
2015,02,22,02,25,1.90
2015,02,22,02,26,1.80
2015,02,22,02,27,1.80
2015,02,22,02,28,1.80
2015,02,22,02,29,1.80
2015,02,22,02,30,1.80
2015,02,22,02,31,1.80
2015,02,22,02,32,1.80
2015,02,22,02,33,1.80
2015,02,22,02,34,1.80
2015,02,22,02,35,1.80
2015,02,22,02,36,1.80
2015,02,22,02,37,1.90
2015,02,22,02,38,1.90
2015,02,22,02,39,1.90
2015,02,22,02,40,1.90
2015,02,22,02,41,1.90
2015,02,22,02,42,1.90
2015,02,22,02,43,2.00
2015,02,22,02,44,2.00
2015,02,22,02,45,2.00
2015,02,22,02,46,2.10
2015,02,22,02,47,2.10
2015,02,22,02,48,2.20
2015,02,22,02,49,2.20
2015,02,22,02,50,2.20
2015,02,22,02,51,2.10
2015,02,22,02,52,2.10
2015,02,22,02,53,2.00
2015,02,22,02,54,2.00
2015,02,22,02,55,1.90
2015,02,22,02,56,1.90
2015,02,22,02,57,1.90
2015,02,22,02,58,1.90
2015,02,22,02,59,1.90
2015,02,22,03,00,1.80
2015,02,22,03,01,1.80
2015,02,22,03,02,1.80
2015,02,22,03,03,1.90
2015,02,22,03,04,1.80
2015,02,22,03,05,1.80
2015,02,22,03,06,1.80
2015,02,22,03,07,1.80
2015,02,22,03,08,1.80
2015,02,22,03,09,1.80
2015,02,22,03,10,1.80
2015,02,22,03,11,1.70
2015,02,22,03,12,1.70
2015,02,22,03,13,1.70
2015,02,22,03,14,1.70
2015,02,22,03,15,1.60
2015,02,22,03,16,1.50
2015,02,22,03,17,1.50
2015,02,22,03,18,1.50
2015,02,22,03,19,1.40
2015,02,22,03,20,1.40
2015,02,22,03,21,1.40
2015,02,22,03,22,1.40
2015,02,22,03,23,1.40
2015,02,22,03,24,1.40
2015,02,22,03,25,1.40
2015,02,22,03,26,1.40
2015,02,22,03,27,1.40
2015,02,22,03,28,1.40
2015,02,22,03,29,1.40
2015,02,22,03,30,1.40
2015,02,22,03,31,1.50
2015,02,22,03,32,1.50
2015,02,22,03,33,1.60
2015,02,22,03,34,1.60
2015,02,22,03,35,1.70
2015,02,22,03,36,1.70
2015,02,22,03,37,1.80
2015,02,22,03,38,1.80
2015,02,22,03,39,1.80
2015,02,22,03,40,1.80
2015,02,22,03,41,1.90
2015,02,22,03,42,1.90
2015,02,22,03,43,1.90
2015,02,22,03,44,1.80
2015,02,22,03,45,1.80
2015,02,22,03,46,1.80
2015,02,22,03,47,1.80
2015,02,22,03,48,1.80
2015,02,22,03,49,1.80
2015,02,22,03,50,1.80
2015,02,22,03,51,1.70
2015,02,22,03,52,1.70
2015,02,22,03,53,1.70
2015,02,22,03,54,1.60
2015,02,22,03,55,1.60
2015,02,22,03,56,1.60
2015,02,22,03,57,1.50
2015,02,22,03,58,1.50
2015,02,22,03,59,1.50
2015,02,22,04,00,1.50
2015,02,22,04,01,1.50
2015,02,22,04,02,1.60
2015,02,22,04,03,1.60
2015,02,22,04,04,1.60
2015,02,22,04,05,1.60
2015,02,22,04,06,1.60
2015,02,22,04,07,1.60
2015,02,22,04,08,1.60
2015,02,22,04,09,1.60
2015,02,22,04,10,1.60
2015,02,22,04,11,1.60
2015,02,22,04,12,1.60
2015,02,22,04,13,1.60
2015,02,22,04,14,1.60
2015,02,22,04,15,1.60
2015,02,22,04,16,1.50
2015,02,22,04,17,1.50
2015,02,22,04,18,1.40
2015,02,22,04,19,1.40
2015,02,22,04,20,1.40
2015,02,22,04,21,1.40
2015,02,22,04,22,1.30
2015,02,22,04,23,1.30
2015,02,22,04,24,1.30
2015,02,22,04,25,1.30
2015,02,22,04,26,1.30
2015,02,22,04,27,1.30
2015,02,22,04,28,1.30
2015,02,22,04,29,1.30
2015,02,22,04,30,1.20
2015,02,22,04,31,1.20
2015,02,22,04,32,1.20
2015,02,22,04,33,1.10
2015,02,22,04,34,1.10
2015,02,22,04,35,1.10
2015,02,22,04,36,1.00
2015,02,22,04,37,1.00
2015,02,22,04,38,1.00
2015,02,22,04,39,1.00
2015,02,22,04,40,1.00
2015,02,22,04,41,1.00
2015,02,22,04,42,1.00
2015,02,22,04,43,1.10
2015,02,22,04,44,1.10
2015,02,22,04,45,1.10
2015,02,22,04,46,1.10
2015,02,22,04,47,1.20
2015,02,22,04,48,1.20
2015,02,22,04,49,1.20
2015,02,22,04,50,1.20
2015,02,22,04,51,1.20
2015,02,22,04,52,1.20
2015,02,22,04,53,1.20
2015,02,22,04,54,1.20
2015,02,22,04,55,1.20
2015,02,22,04,56,1.20
2015,02,22,04,57,1.10
2015,02,22,04,58,1.10
2015,02,22,04,59,1.10
2015,02,22,05,00,1.10
2015,02,22,05,01,1.20
2015,02,22,05,02,1.30
2015,02,22,05,03,1.30
2015,02,22,05,04,1.40
2015,02,22,05,05,1.50
2015,02,22,05,06,1.50
2015,02,22,05,07,1.50
2015,02,22,05,08,1.50
2015,02,22,05,09,1.40
2015,02,22,05,10,1.40
2015,02,22,05,11,1.30
2015,02,22,05,12,1.20
2015,02,22,05,13,1.20
2015,02,22,05,14,1.10
2015,02,22,05,15,1.00
2015,02,22,05,16,1.00
2015,02,22,05,17,0.90
2015,02,22,05,18,0.90
2015,02,22,05,19,0.80
2015,02,22,05,20,0.80
2015,02,22,05,21,0.80
2015,02,22,05,22,0.80
2015,02,22,05,23,0.70
2015,02,22,05,24,0.70
2015,02,22,05,25,0.70
2015,02,22,05,26,0.70
2015,02,22,05,27,0.60
2015,02,22,05,28,0.60
2015,02,22,05,29,0.60
2015,02,22,05,30,0.60
2015,02,22,05,31,0.60
2015,02,22,05,32,0.60
2015,02,22,05,33,0.60
2015,02,22,05,34,0.50
2015,02,22,05,35,0.50
2015,02,22,05,36,0.40
2015,02,22,05,37,0.40
2015,02,22,05,38,0.40
2015,02,22,05,39,0.40
2015,02,22,05,40,0.40
2015,02,22,05,41,0.40
2015,02,22,05,42,0.40
2015,02,22,05,43,0.50
2015,02,22,05,44,0.50
2015,02,22,05,45,0.60
2015,02,22,05,46,0.60
2015,02,22,05,47,0.60
2015,02,22,05,48,0.60
2015,02,22,05,49,0.60
2015,02,22,05,50,0.60
2015,02,22,05,51,0.60
2015,02,22,05,52,0.50
2015,02,22,05,53,0.50
2015,02,22,05,54,0.40
2015,02,22,05,55,0.40
2015,02,22,05,56,0.30
2015,02,22,05,57,0.30
2015,02,22,05,58,0.40
2015,02,22,05,59,0.40
2015,02,22,06,00,0.40
2015,02,22,06,01,0.40
2015,02,22,06,02,0.40
2015,02,22,06,03,0.40
2015,02,22,06,04,0.50
2015,02,22,06,05,0.50
2015,02,22,06,06,0.60
2015,02,22,06,07,0.60
2015,02,22,06,08,0.70
2015,02,22,06,09,0.70
2015,02,22,06,10,0.60
2015,02,22,06,11,0.60
2015,02,22,06,12,0.60
2015,02,22,06,13,0.60
2015,02,22,06,14,0.60
2015,02,22,06,15,0.60
2015,02,22,06,16,0.60
2015,02,22,06,17,0.70
2015,02,22,06,18,0.70
2015,02,22,06,19,0.70
2015,02,22,06,20,0.80
2015,02,22,06,21,0.80
2015,02,22,06,22,0.80
2015,02,22,06,23,0.80
2015,02,22,06,24,0.70
2015,02,22,06,25,0.70
2015,02,22,06,26,0.70
2015,02,22,06,27,0.70
2015,02,22,06,28,0.80
2015,02,22,06,29,0.80
2015,02,22,06,30,0.80
2015,02,22,06,31,0.80
2015,02,22,06,32,0.70
2015,02,22,06,33,0.70
2015,02,22,06,34,0.60
2015,02,22,06,35,0.50
2015,02,22,06,36,0.40
2015,02,22,06,37,0.30
2015,02,22,06,38,0.30
2015,02,22,06,39,0.30
2015,02,22,06,40,0.30
2015,02,22,06,41,0.30
2015,02,22,06,42,0.30
2015,02,22,06,43,0.30
2015,02,22,06,44,0.30
2015,02,22,06,45,0.20
2015,02,22,06,46,0.20
2015,02,22,06,47,0.20
2015,02,22,06,48,0.20
2015,02,22,06,49,0.30
2015,02,22,06,50,0.30
2015,02,22,06,51,0.40
2015,02,22,06,52,0.40
2015,02,22,06,53,0.40
2015,02,22,06,54,0.50
2015,02,22,06,55,0.40
2015,02,22,06,56,0.40
2015,02,22,06,57,0.30
2015,02,22,06,58,0.30
2015,02,22,06,59,0.20
2015,02,22,07,00,0.20
2015,02,22,07,01,0.10
2015,02,22,07,02,0.10
2015,02,22,07,03,0.00
2015,02,22,07,04,0.00
2015,02,22,07,05,-0.10
2015,02,22,07,06,-0.10
2015,02,22,07,07,-0.10
2015,02,22,07,08,-0.10
2015,02,22,07,09,-0.10
2015,02,22,07,10,-0.10
2015,02,22,07,11,-0.10
2015,02,22,07,12,-0.10
2015,02,22,07,13,0.00
2015,02,22,07,14,0.10
2015,02,22,07,15,0.10
2015,02,22,07,16,0.20
2015,02,22,07,17,0.20
2015,02,22,07,18,0.30
2015,02,22,07,19,0.30
2015,02,22,07,20,0.30
2015,02,22,07,21,0.30
2015,02,22,07,22,0.30
2015,02,22,07,23,0.30
2015,02,22,07,24,0.30
2015,02,22,07,25,0.30
2015,02,22,07,26,0.30
2015,02,22,07,27,0.30
2015,02,22,07,28,0.30
2015,02,22,07,29,0.30
2015,02,22,07,30,0.30
2015,02,22,07,31,0.30
2015,02,22,07,32,0.30
2015,02,22,07,33,0.30
2015,02,22,07,34,0.30
2015,02,22,07,35,0.30
2015,02,22,07,36,0.30
2015,02,22,07,37,0.40
2015,02,22,07,38,0.40
2015,02,22,07,39,0.40
2015,02,22,07,40,0.30
2015,02,22,07,41,0.30
2015,02,22,07,42,0.30
2015,02,22,07,43,0.30
2015,02,22,07,44,0.30
2015,02,22,07,45,0.20
2015,02,22,07,46,0.20
2015,02,22,07,47,0.10
2015,02,22,07,48,0.10
2015,02,22,07,49,0.10
2015,02,22,07,50,0.10
2015,02,22,07,51,0.10
2015,02,22,07,52,0.10
2015,02,22,07,53,0.10
2015,02,22,07,54,0.20
2015,02,22,07,55,0.20
2015,02,22,07,56,0.20
2015,02,22,07,57,0.20
2015,02,22,07,58,0.20
2015,02,22,07,59,0.20
2015,02,22,08,00,0.20
2015,02,22,08,01,0.20
2015,02,22,08,02,0.20
2015,02,22,08,03,0.10
2015,02,22,08,04,0.10
2015,02,22,08,05,0.10
2015,02,22,08,06,0.10
2015,02,22,08,07,0.20
2015,02,22,08,08,0.20
2015,02,22,08,09,0.30
2015,02,22,08,10,0.30
2015,02,22,08,11,0.40
2015,02,22,08,12,0.50
2015,02,22,08,13,0.60
2015,02,22,08,14,0.70
2015,02,22,08,15,0.80
2015,02,22,08,16,0.90
2015,02,22,08,17,1.00
2015,02,22,08,18,1.10
2015,02,22,08,19,1.20
2015,02,22,08,20,1.20
2015,02,22,08,21,1.30
2015,02,22,08,22,1.40
2015,02,22,08,23,1.50
2015,02,22,08,24,1.60
2015,02,22,08,25,1.70
2015,02,22,08,26,1.70
2015,02,22,08,27,1.70
2015,02,22,08,28,1.80
2015,02,22,08,29,1.80
2015,02,22,08,30,1.80
2015,02,22,08,31,1.80
2015,02,22,08,32,1.90
2015,02,22,08,33,1.90
2015,02,22,08,34,2.00
2015,02,22,08,35,2.00
2015,02,22,08,36,2.10
2015,02,22,08,37,2.10
2015,02,22,08,38,2.20
2015,02,22,08,39,2.20
2015,02,22,08,40,2.20
2015,02,22,08,41,2.30
2015,02,22,08,42,2.30
2015,02,22,08,43,2.30
2015,02,22,08,44,2.30
2015,02,22,08,45,2.40
2015,02,22,08,46,2.40
2015,02,22,08,47,2.40
2015,02,22,08,48,2.50
2015,02,22,08,49,2.50
2015,02,22,08,50,2.60
2015,02,22,08,51,2.60
2015,02,22,08,52,2.70
2015,02,22,08,53,2.70
2015,02,22,08,54,2.70
2015,02,22,08,55,2.80
2015,02,22,08,56,2.80
2015,02,22,08,57,2.90
2015,02,22,08,58,2.90
2015,02,22,08,59,3.00
2015,02,22,09,00,3.00
2015,02,22,09,01,3.10
2015,02,22,09,02,3.20
2015,02,22,09,03,3.20
2015,02,22,09,04,3.30
2015,02,22,09,05,3.30
2015,02,22,09,06,3.40
2015,02,22,09,07,3.50
2015,02,22,09,08,3.50
2015,02,22,09,09,3.60
2015,02,22,09,10,3.60
2015,02,22,09,11,3.60
2015,02,22,09,12,3.70
2015,02,22,09,13,3.70
2015,02,22,09,14,3.70
2015,02,22,09,15,3.80
2015,02,22,09,16,3.80
2015,02,22,09,17,3.90
2015,02,22,09,18,3.90
2015,02,22,09,19,4.00
2015,02,22,09,20,4.00
2015,02,22,09,21,4.10
2015,02,22,09,22,4.10
2015,02,22,09,23,4.20
2015,02,22,09,24,4.30
2015,02,22,09,25,4.30
2015,02,22,09,26,4.40
2015,02,22,09,27,4.40
2015,02,22,09,28,4.50
2015,02,22,09,29,4.60
2015,02,22,09,30,4.70
2015,02,22,09,31,4.70
2015,02,22,09,32,4.80
2015,02,22,09,33,4.80
2015,02,22,09,34,4.90
2015,02,22,09,35,5.00
2015,02,22,09,36,5.00
2015,02,22,09,37,5.10
2015,02,22,09,38,5.20
2015,02,22,09,39,5.20
2015,02,22,09,40,5.30
2015,02,22,09,41,5.30
2015,02,22,09,42,5.30
2015,02,22,09,43,5.40
2015,02,22,09,44,5.40
2015,02,22,09,45,5.50
2015,02,22,09,46,5.50
2015,02,22,09,47,5.60
2015,02,22,09,48,5.60
2015,02,22,09,49,5.70
2015,02,22,09,50,5.70
2015,02,22,09,51,5.80
2015,02,22,09,52,5.80
2015,02,22,09,53,5.90
2015,02,22,09,54,5.90
2015,02,22,09,55,6.00
2015,02,22,09,56,6.00
2015,02,22,09,57,6.10
2015,02,22,09,58,6.10
2015,02,22,09,59,6.20
2015,02,22,10,00,6.20
2015,02,22,10,01,6.20
2015,02,22,10,02,6.20
2015,02,22,10,03,6.30
2015,02,22,10,04,6.30
2015,02,22,10,05,6.40
2015,02,22,10,06,6.50
2015,02,22,10,07,6.50
2015,02,22,10,08,6.60
2015,02,22,10,09,6.60
2015,02,22,10,10,6.60
2015,02,22,10,11,6.70
2015,02,22,10,12,6.70
2015,02,22,10,13,6.70
2015,02,22,10,14,6.80
2015,02,22,10,15,6.80
2015,02,22,10,16,6.80
2015,02,22,10,17,6.80
2015,02,22,10,18,6.80
2015,02,22,10,19,6.90
2015,02,22,10,20,7.00
2015,02,22,10,21,7.00
2015,02,22,10,22,7.00
2015,02,22,10,23,7.00
2015,02,22,10,24,7.00
2015,02,22,10,25,7.00
2015,02,22,10,26,7.00
2015,02,22,10,27,7.00
2015,02,22,10,28,7.00
2015,02,22,10,29,7.00
2015,02,22,10,30,7.00
2015,02,22,10,31,7.00
2015,02,22,10,32,7.00
2015,02,22,10,33,7.00
2015,02,22,10,34,7.00
2015,02,22,10,35,7.00
2015,02,22,10,36,7.00
2015,02,22,10,37,7.00
2015,02,22,10,38,7.00
2015,02,22,10,39,7.00
2015,02,22,10,40,7.10
2015,02,22,10,41,7.10
2015,02,22,10,42,7.20
2015,02,22,10,43,7.20
2015,02,22,10,44,7.20
2015,02,22,10,45,7.30
2015,02,22,10,46,7.30
2015,02,22,10,47,7.40
2015,02,22,10,48,7.40
2015,02,22,10,49,7.50
2015,02,22,10,50,7.50
2015,02,22,10,51,7.50
2015,02,22,10,52,7.60
2015,02,22,10,53,7.60
2015,02,22,10,54,7.60
2015,02,22,10,55,7.60
2015,02,22,10,56,7.60
2015,02,22,10,57,7.70
2015,02,22,10,58,7.70
2015,02,22,10,59,7.80
2015,02,22,11,00,7.90
2015,02,22,11,01,8.00
2015,02,22,11,02,8.00
2015,02,22,11,03,8.10
2015,02,22,11,04,8.10
2015,02,22,11,05,8.20
2015,02,22,11,06,8.30
2015,02,22,11,07,8.30
2015,02,22,11,08,8.40
2015,02,22,11,09,8.50
2015,02,22,11,10,8.50
2015,02,22,11,11,8.50
2015,02,22,11,12,8.40
2015,02,22,11,13,8.40
2015,02,22,11,14,8.40
2015,02,22,11,15,8.50
2015,02,22,11,16,8.50
2015,02,22,11,17,8.60
2015,02,22,11,18,8.60
2015,02,22,11,19,8.70
2015,02,22,11,20,8.70
2015,02,22,11,21,8.70
2015,02,22,11,22,8.70
2015,02,22,11,23,8.70
2015,02,22,11,24,8.70
2015,02,22,11,25,8.70
2015,02,22,11,26,8.70
2015,02,22,11,27,8.70
2015,02,22,11,28,8.70
2015,02,22,11,29,8.70
2015,02,22,11,30,8.80
2015,02,22,11,31,8.80
2015,02,22,11,32,8.80
2015,02,22,11,33,8.90
2015,02,22,11,34,9.00
2015,02,22,11,35,9.00
2015,02,22,11,36,9.10
2015,02,22,11,37,9.10
2015,02,22,11,38,9.20
2015,02,22,11,39,9.20
2015,02,22,11,40,9.30
2015,02,22,11,41,9.30
2015,02,22,11,42,9.30
2015,02,22,11,43,9.30
2015,02,22,11,44,9.30
2015,02,22,11,45,9.40
2015,02,22,11,46,9.40
2015,02,22,11,47,9.40
2015,02,22,11,48,9.50
2015,02,22,11,49,9.50
2015,02,22,11,50,9.50
2015,02,22,11,51,9.60
2015,02,22,11,52,9.50
2015,02,22,11,53,9.50
2015,02,22,11,54,9.40
2015,02,22,11,55,9.40
2015,02,22,11,56,9.40
2015,02,22,11,57,9.40
2015,02,22,11,58,9.30
2015,02,22,11,59,9.30
2015,02,22,12,00,9.30
2015,02,22,12,01,9.20
2015,02,22,12,02,9.20
2015,02,22,12,03,9.20
2015,02,22,12,04,9.20
2015,02,22,12,05,9.20
2015,02,22,12,06,9.20
2015,02,22,12,07,9.30
2015,02,22,12,08,9.30
2015,02,22,12,09,9.40
2015,02,22,12,10,9.50
2015,02,22,12,11,9.60
2015,02,22,12,12,9.70
2015,02,22,12,13,9.70
2015,02,22,12,14,9.70
2015,02,22,12,15,9.80
2015,02,22,12,16,9.80
2015,02,22,12,17,9.80
2015,02,22,12,18,9.80
2015,02,22,12,19,9.90
2015,02,22,12,20,9.90
2015,02,22,12,21,9.80
2015,02,22,12,22,9.80
2015,02,22,12,23,9.80
2015,02,22,12,24,9.70
2015,02,22,12,25,9.70
2015,02,22,12,26,9.70
2015,02,22,12,27,9.70
2015,02,22,12,28,9.70
2015,02,22,12,29,9.70
2015,02,22,12,30,9.70
2015,02,22,12,31,9.80
2015,02,22,12,32,9.80
2015,02,22,12,33,9.80
2015,02,22,12,34,9.80
2015,02,22,12,35,9.80
2015,02,22,12,36,9.80
2015,02,22,12,37,9.70
2015,02,22,12,38,9.70
2015,02,22,12,39,9.70
2015,02,22,12,40,9.70
2015,02,22,12,41,9.70
2015,02,22,12,42,9.80
2015,02,22,12,43,9.80
2015,02,22,12,44,9.90
2015,02,22,12,45,9.90
2015,02,22,12,46,9.90
2015,02,22,12,47,9.90
2015,02,22,12,48,9.90
2015,02,22,12,49,9.90
2015,02,22,12,50,9.90
2015,02,22,12,51,10.00
2015,02,22,12,52,10.00
2015,02,22,12,53,10.10
2015,02,22,12,54,10.10
2015,02,22,12,55,10.10
2015,02,22,12,56,10.20
2015,02,22,12,57,10.20
2015,02,22,12,58,10.20
2015,02,22,12,59,10.30
2015,02,22,13,00,10.20
2015,02,22,13,01,10.20
2015,02,22,13,02,10.20
2015,02,22,13,03,10.20
2015,02,22,13,04,10.30
2015,02,22,13,05,10.30
2015,02,22,13,06,10.30
2015,02,22,13,07,10.30
2015,02,22,13,08,10.30
2015,02,22,13,09,10.30
2015,02,22,13,10,10.30
2015,02,22,13,11,10.30
2015,02,22,13,12,10.40
2015,02,22,13,13,10.40
2015,02,22,13,14,10.50
2015,02,22,13,15,10.50
2015,02,22,13,16,10.50
2015,02,22,13,17,10.50
2015,02,22,13,18,10.50
2015,02,22,13,19,10.50
2015,02,22,13,20,10.50
2015,02,22,13,21,10.40
2015,02,22,13,22,10.40
2015,02,22,13,23,10.30
2015,02,22,13,24,10.30
2015,02,22,13,25,10.30
2015,02,22,13,26,10.30
2015,02,22,13,27,10.40
2015,02,22,13,28,10.40
2015,02,22,13,29,10.50
2015,02,22,13,30,10.60
2015,02,22,13,31,10.60
2015,02,22,13,32,10.70
2015,02,22,13,33,10.70
2015,02,22,13,34,10.80
2015,02,22,13,35,10.80
2015,02,22,13,36,10.90
2015,02,22,13,37,10.90
2015,02,22,13,38,11.00
2015,02,22,13,39,11.00
2015,02,22,13,40,11.10
2015,02,22,13,41,11.10
2015,02,22,13,42,11.10
2015,02,22,13,43,11.10
2015,02,22,13,44,11.10
2015,02,22,13,45,11.10
2015,02,22,13,46,11.10
2015,02,22,13,47,11.00
2015,02,22,13,48,11.00
2015,02,22,13,49,11.10
2015,02,22,13,50,11.10
2015,02,22,13,51,11.10
2015,02,22,13,52,11.20
2015,02,22,13,53,11.20
2015,02,22,13,54,11.30
2015,02,22,13,55,11.30
2015,02,22,13,56,11.40
2015,02,22,13,57,11.40
2015,02,22,13,58,11.40
2015,02,22,13,59,11.30
2015,02,22,14,00,11.30
2015,02,22,14,01,11.40
2015,02,22,14,02,11.40
2015,02,22,14,03,11.40
2015,02,22,14,04,11.50
2015,02,22,14,05,11.50
2015,02,22,14,06,11.60
2015,02,22,14,07,11.60
2015,02,22,14,08,11.60
2015,02,22,14,09,11.60
2015,02,22,14,10,11.60
2015,02,22,14,11,11.60
2015,02,22,14,12,11.60
2015,02,22,14,13,11.60
2015,02,22,14,14,11.70
2015,02,22,14,15,11.70
2015,02,22,14,16,11.70
2015,02,22,14,17,11.70
2015,02,22,14,18,11.60
2015,02,22,14,19,11.60
2015,02,22,14,20,11.50
2015,02,22,14,21,11.50
2015,02,22,14,22,11.40
2015,02,22,14,23,11.40
2015,02,22,14,24,11.40
2015,02,22,14,25,11.40
2015,02,22,14,26,11.40
2015,02,22,14,27,11.40
2015,02,22,14,28,11.40
2015,02,22,14,29,11.40
2015,02,22,14,30,11.40
2015,02,22,14,31,11.40
2015,02,22,14,32,11.30
2015,02,22,14,33,11.30
2015,02,22,14,34,11.30
2015,02,22,14,35,11.30
2015,02,22,14,36,11.30
2015,02,22,14,37,11.30
2015,02,22,14,38,11.30
2015,02,22,14,39,11.30
2015,02,22,14,40,11.20
2015,02,22,14,41,11.20
2015,02,22,14,42,11.20
2015,02,22,14,43,11.10
2015,02,22,14,44,11.10
2015,02,22,14,45,11.20
2015,02,22,14,46,11.20
2015,02,22,14,47,11.20
2015,02,22,14,48,11.20
2015,02,22,14,49,11.30
2015,02,22,14,50,11.30
2015,02,22,14,51,11.30
2015,02,22,14,52,11.30
2015,02,22,14,53,11.30
2015,02,22,14,54,11.30
2015,02,22,14,55,11.30
2015,02,22,14,56,11.30
2015,02,22,14,57,11.30
2015,02,22,14,58,11.30
2015,02,22,14,59,11.30
2015,02,22,15,00,11.40
2015,02,22,15,01,11.40
2015,02,22,15,02,11.40
2015,02,22,15,03,11.40
2015,02,22,15,04,11.40
2015,02,22,15,05,11.50
2015,02,22,15,06,11.50
2015,02,22,15,07,11.60
2015,02,22,15,08,11.70
2015,02,22,15,09,11.80
2015,02,22,15,10,11.80
2015,02,22,15,11,11.90
2015,02,22,15,12,11.90
2015,02,22,15,13,12.00
2015,02,22,15,14,12.10
2015,02,22,15,15,12.10
2015,02,22,15,16,12.10
2015,02,22,15,17,12.10
2015,02,22,15,18,12.10
2015,02,22,15,19,12.10
2015,02,22,15,20,12.10
2015,02,22,15,21,12.00
2015,02,22,15,22,12.00
2015,02,22,15,23,12.00
2015,02,22,15,24,12.00
2015,02,22,15,25,12.10
2015,02,22,15,26,12.10
2015,02,22,15,27,12.10
2015,02,22,15,28,12.10
2015,02,22,15,29,12.00
2015,02,22,15,30,12.00
2015,02,22,15,31,11.90
2015,02,22,15,32,11.90
2015,02,22,15,33,11.90
2015,02,22,15,34,11.90
2015,02,22,15,35,11.90
2015,02,22,15,36,11.90
2015,02,22,15,37,11.90
2015,02,22,15,38,11.90
2015,02,22,15,39,11.90
2015,02,22,15,40,11.90
2015,02,22,15,41,11.80
2015,02,22,15,42,11.80
2015,02,22,15,43,11.80
2015,02,22,15,44,11.80
2015,02,22,15,45,11.80
2015,02,22,15,46,11.80
2015,02,22,15,47,11.70
2015,02,22,15,48,11.70
2015,02,22,15,49,11.70
2015,02,22,15,50,11.70
2015,02,22,15,51,11.70
2015,02,22,15,52,11.70
2015,02,22,15,53,11.80
2015,02,22,15,54,11.80
2015,02,22,15,55,11.80
2015,02,22,15,56,11.80
2015,02,22,15,57,11.80
2015,02,22,15,58,11.90
2015,02,22,15,59,11.90
2015,02,22,16,00,12.00
2015,02,22,16,01,12.00
2015,02,22,16,02,12.10
2015,02,22,16,03,12.10
2015,02,22,16,04,12.20
2015,02,22,16,05,12.20
2015,02,22,16,06,12.30
2015,02,22,16,07,12.30
2015,02,22,16,08,12.20
2015,02,22,16,09,12.20
2015,02,22,16,10,12.20
2015,02,22,16,11,12.20
2015,02,22,16,12,12.30
2015,02,22,16,13,12.30
2015,02,22,16,14,12.20
2015,02,22,16,15,12.10
2015,02,22,16,16,12.00
2015,02,22,16,17,12.00
2015,02,22,16,18,11.90
2015,02,22,16,19,11.90
2015,02,22,16,20,11.90
2015,02,22,16,21,11.80
2015,02,22,16,22,11.80
2015,02,22,16,23,11.80
2015,02,22,16,24,12.00
2015,02,22,16,25,12.00
2015,02,22,16,26,12.00
2015,02,22,16,27,12.00
2015,02,22,16,28,11.90
2015,02,22,16,29,11.90
2015,02,22,16,30,11.90
2015,02,22,16,31,11.80
2015,02,22,16,32,11.80
2015,02,22,16,33,11.70
2015,02,22,16,34,11.70
2015,02,22,16,35,11.70
2015,02,22,16,36,11.70
2015,02,22,16,37,11.70
2015,02,22,16,38,11.70
2015,02,22,16,39,11.70
2015,02,22,16,40,11.70
2015,02,22,16,41,11.70
2015,02,22,16,42,11.70
2015,02,22,16,43,11.70
2015,02,22,16,44,11.60
2015,02,22,16,45,11.50
2015,02,22,16,46,11.50
2015,02,22,16,47,11.40
2015,02,22,16,48,11.40
2015,02,22,16,49,11.30
2015,02,22,16,50,11.30
2015,02,22,16,51,11.30
2015,02,22,16,52,11.20
2015,02,22,16,53,11.20
2015,02,22,16,54,11.20
2015,02,22,16,55,11.20
2015,02,22,16,56,11.20
2015,02,22,16,57,11.10
2015,02,22,16,58,11.10
2015,02,22,16,59,11.10
2015,02,22,17,00,11.10
2015,02,22,17,01,11.10
2015,02,22,17,02,11.10
2015,02,22,17,03,11.10
2015,02,22,17,04,11.10
2015,02,22,17,05,11.00
2015,02,22,17,06,11.00
2015,02,22,17,07,11.00
2015,02,22,17,08,11.00
2015,02,22,17,09,11.00
2015,02,22,17,10,11.10
2015,02,22,17,11,11.00
2015,02,22,17,12,11.00
2015,02,22,17,13,10.90
2015,02,22,17,14,10.90
2015,02,22,17,15,10.80
2015,02,22,17,16,10.70
2015,02,22,17,17,10.60
2015,02,22,17,18,10.40
2015,02,22,17,19,10.30
2015,02,22,17,20,10.10
2015,02,22,17,21,10.00
2015,02,22,17,22,9.90
2015,02,22,17,23,9.70
2015,02,22,17,24,9.60
2015,02,22,17,25,9.50
2015,02,22,17,26,9.40
2015,02,22,17,27,9.30
2015,02,22,17,28,9.20
2015,02,22,17,29,9.00
2015,02,22,17,30,9.00
2015,02,22,17,31,8.90
2015,02,22,17,32,8.80
2015,02,22,17,33,8.80
2015,02,22,17,34,8.70
2015,02,22,17,35,8.70
2015,02,22,17,36,8.60
2015,02,22,17,37,8.60
2015,02,22,17,38,8.50
2015,02,22,17,39,8.40
2015,02,22,17,40,8.30
2015,02,22,17,41,8.20
2015,02,22,17,42,8.10
2015,02,22,17,43,8.10
2015,02,22,17,44,8.00
2015,02,22,17,45,7.90
2015,02,22,17,46,7.80
2015,02,22,17,47,7.70
2015,02,22,17,48,7.60
2015,02,22,17,49,7.50
2015,02,22,17,50,7.50
2015,02,22,17,51,7.40
2015,02,22,17,52,7.30
2015,02,22,17,53,7.30
2015,02,22,17,54,7.20